Time,TemperatureF,DewpointF,PressureIn,WindDirection,WindDirectionDegrees,WindSpeedMPH,WindSpeedGustMPH,Humidity,HourlyPrecipIn,Conditions,Clouds,dailyrainin,SoftwareType,DateUTC
2013-05-19 00:01:00,60.8,53.2,30.10,SE,144,0.0,0.0,76,0.00,,,0.00,VWS V14.00,2013-05-19 04:01:00,
2013-05-19 00:06:00,60.7,53.1,30.10,SSE,168,0.0,2.0,76,0.00,,,0.00,VWS V14.00,2013-05-19 04:06:00,
2013-05-19 00:11:00,60.7,53.1,30.09,SSE,148,0.0,4.0,76,0.00,,,0.00,VWS V14.00,2013-05-19 04:11:00,
2013-05-19 00:16:00,60.6,53.4,30.09,SSE,148,0.0,4.0,77,0.00,,,0.00,VWS V14.00,2013-05-19 04:16:00,
2013-05-19 00:21:00,60.6,53.4,30.10,SSE,148,0.0,4.0,77,0.00,,,0.00,VWS V14.00,2013-05-19 04:21:00,
2013-05-19 00:26:00,60.5,53.3,30.10,SSE,148,0.0,4.0,77,0.00,,,0.00,VWS V14.00,2013-05-19 04:26:00,
2013-05-19 00:31:00,60.5,53.3,30.09,SSE,148,0.0,0.0,77,0.00,,,0.00,VWS V14.00,2013-05-19 04:31:00,
2013-05-19 00:36:00,60.4,53.2,30.09,SSE,148,0.0,0.0,77,0.00,,,0.00,VWS V14.00,2013-05-19 04:36:00,
2013-05-19 00:41:00,60.3,53.1,30.09,SSE,148,0.0,1.0,77,0.00,,,0.00,VWS V14.00,2013-05-19 04:41:00,
2013-05-19 00:46:00,60.2,53.3,30.09,SSE,148,0.0,1.0,78,0.00,,,0.00,VWS V14.00,2013-05-19 04:46:00,
2013-05-19 00:51:00,60.1,53.2,30.09,SSE,148,0.0,1.0,78,0.00,,,0.00,VWS V14.00,2013-05-19 04:51:00,
2013-05-19 00:56:00,59.9,53.0,30.09,SSE,148,0.0,1.0,78,0.00,,,0.00,VWS V14.00,2013-05-19 04:56:00,
2013-05-19 01:01:00,59.7,53.2,30.09,SSE,148,0.0,0.0,79,0.00,,,0.00,VWS V14.00,2013-05-19 05:01:00,
2013-05-19 01:06:00,59.6,53.1,30.09,SSE,148,0.0,0.0,79,0.00,,,0.00,VWS V14.00,2013-05-19 05:06:00,
2013-05-19 01:11:00,59.5,53.0,30.09,SSE,148,0.0,0.0,79,0.00,,,0.00,VWS V14.00,2013-05-19 05:11:00,
2013-05-19 01:16:00,59.4,52.9,30.09,SSE,148,0.0,0.0,79,0.00,,,0.00,VWS V14.00,2013-05-19 05:16:00,
2013-05-19 01:21:00,59.3,52.8,30.08,SSE,148,0.0,1.0,79,0.00,,,0.00,VWS V14.00,2013-05-19 05:21:00,
2013-05-19 01:26:00,59.3,53.1,30.09,SSE,148,0.0,1.0,80,0.00,,,0.00,VWS V14.00,2013-05-19 05:26:00,
2013-05-19 01:31:00,59.3,52.8,30.08,SSE,148,0.0,0.0,79,0.00,,,0.00,VWS V14.00,2013-05-19 05:31:00,
2013-05-19 01:36:00,59.4,52.9,30.08,SSE,148,0.0,0.0,79,0.00,,,0.00,VWS V14.00,2013-05-19 05:36:00,
2013-05-19 01:41:00,59.4,52.9,30.09,SSE,148,0.0,0.0,79,0.00,,,0.00,VWS V14.00,2013-05-19 05:41:00,
2013-05-19 01:46:00,59.4,52.9,30.08,SSE,163,0.0,2.0,79,0.00,,,0.00,VWS V14.00,2013-05-19 05:46:00,
2013-05-19 01:51:00,59.5,53.0,30.08,South,177,0.0,2.0,79,0.00,,,0.00,VWS V14.00,2013-05-19 05:51:00,
2013-05-19 01:56:00,59.5,53.0,30.08,South,177,0.0,2.0,79,0.00,,,0.00,VWS V14.00,2013-05-19 05:56:00,
2013-05-19 02:01:00,59.5,53.0,30.08,SSE,162,4.0,4.0,79,0.00,,,0.00,VWS V14.00,2013-05-19 06:01:00,
2013-05-19 02:06:00,59.5,53.0,30.08,SSE,167,0.0,4.0,79,0.00,,,0.00,VWS V14.00,2013-05-19 06:06:00,
2013-05-19 02:11:00,59.4,52.9,30.08,SSE,167,0.0,4.0,79,0.00,,,0.00,VWS V14.00,2013-05-19 06:11:00,
2013-05-19 02:16:00,59.4,52.9,30.08,SSE,167,0.0,4.0,79,0.00,,,0.00,VWS V14.00,2013-05-19 06:16:00,
2013-05-19 02:21:00,59.4,52.9,30.08,SSE,167,0.0,4.0,79,0.00,,,0.00,VWS V14.00,2013-05-19 06:21:00,
2013-05-19 02:26:00,59.3,52.8,30.08,SSE,167,0.0,4.0,79,0.00,,,0.00,VWS V14.00,2013-05-19 06:26:00,
2013-05-19 02:31:00,59.3,52.8,30.08,SSE,167,0.0,0.0,79,0.00,,,0.00,VWS V14.00,2013-05-19 06:31:00,
2013-05-19 02:36:00,59.2,52.7,30.07,SSE,167,0.0,0.0,79,0.00,,,0.00,VWS V14.00,2013-05-19 06:36:00,
2013-05-19 02:41:00,59.2,53.0,30.08,SSE,167,0.0,0.0,80,0.00,,,0.00,VWS V14.00,2013-05-19 06:41:00,
2013-05-19 02:46:00,59.1,52.9,30.08,SSE,166,0.0,1.0,80,0.00,,,0.00,VWS V14.00,2013-05-19 06:46:00,
2013-05-19 02:51:00,59.1,52.9,30.08,South,178,0.0,4.0,80,0.00,,,0.00,VWS V14.00,2013-05-19 06:51:00,
2013-05-19 02:56:00,59.2,53.0,30.07,South,178,0.0,4.0,80,0.00,,,0.00,VWS V14.00,2013-05-19 06:56:00,
2013-05-19 03:01:00,59.1,52.9,30.07,SE,144,0.0,0.0,80,0.00,,,0.00,VWS V14.00,2013-05-19 07:01:00,
2013-05-19 03:06:00,59.1,52.9,30.07,SE,144,0.0,0.0,80,0.00,,,0.00,VWS V14.00,2013-05-19 07:06:00,
2013-05-19 03:11:00,59.1,52.9,30.07,SSE,161,0.0,4.0,80,0.00,,,0.00,VWS V14.00,2013-05-19 07:11:00,
2013-05-19 03:16:00,59.0,53.2,30.07,SSE,161,0.0,4.0,81,0.00,,,0.00,VWS V14.00,2013-05-19 07:16:00,
2013-05-19 03:21:00,59.0,53.8,30.07,SSE,164,0.0,4.0,83,0.00,,,0.00,VWS V14.00,2013-05-19 07:21:00,
2013-05-19 03:26:00,58.9,53.1,30.07,SSE,164,0.0,4.0,81,0.00,,,0.00,VWS V14.00,2013-05-19 07:26:00,
2013-05-19 03:31:00,58.9,53.1,30.07,SSE,164,0.0,0.0,81,0.00,,,0.00,VWS V14.00,2013-05-19 07:31:00,
2013-05-19 03:36:00,58.8,53.0,30.06,SSE,164,0.0,1.0,81,0.00,,,0.00,VWS V14.00,2013-05-19 07:36:00,
2013-05-19 03:41:00,58.7,52.9,30.07,SE,138,0.0,1.0,81,0.00,,,0.00,VWS V14.00,2013-05-19 07:41:00,
2013-05-19 03:46:00,58.7,53.2,30.07,SE,136,0.0,1.0,82,0.00,,,0.00,VWS V14.00,2013-05-19 07:46:00,
2013-05-19 03:51:00,58.6,53.1,30.07,SE,136,0.0,1.0,82,0.00,,,0.00,VWS V14.00,2013-05-19 07:51:00,
2013-05-19 03:56:00,58.5,53.0,30.07,SE,136,0.0,1.0,82,0.00,,,0.00,VWS V14.00,2013-05-19 07:56:00,
2013-05-19 04:01:00,58.4,52.9,30.06,SE,136,0.0,0.0,82,0.00,,,0.00,VWS V14.00,2013-05-19 08:01:00,
2013-05-19 04:06:00,58.3,52.8,30.06,SE,139,0.0,2.0,82,0.00,,,0.00,VWS V14.00,2013-05-19 08:06:00,
2013-05-19 04:11:00,58.2,53.1,30.06,SE,139,0.0,2.0,83,0.00,,,0.00,VWS V14.00,2013-05-19 08:11:00,
2013-05-19 04:16:00,58.1,53.0,30.06,SE,139,0.0,2.0,83,0.00,,,0.00,VWS V14.00,2013-05-19 08:16:00,
2013-05-19 04:21:00,58.0,52.9,30.06,SE,127,1.0,2.0,83,0.00,,,0.00,VWS V14.00,2013-05-19 08:21:00,
2013-05-19 04:26:00,57.9,52.8,30.06,ESE,118,0.0,4.0,83,0.00,,,0.00,VWS V14.00,2013-05-19 08:26:00,
2013-05-19 04:31:00,57.8,52.7,30.06,ESE,118,0.0,0.0,83,0.00,,,0.00,VWS V14.00,2013-05-19 08:31:00,
2013-05-19 04:36:00,57.7,52.6,30.06,ESE,118,0.0,0.0,83,0.00,,,0.00,VWS V14.00,2013-05-19 08:36:00,
2013-05-19 04:41:00,57.6,52.8,30.07,ESE,118,0.0,0.0,84,0.00,,,0.00,VWS V14.00,2013-05-19 08:41:00,
2013-05-19 04:46:00,57.4,52.6,30.07,ESE,118,0.0,0.0,84,0.00,,,0.00,VWS V14.00,2013-05-19 08:46:00,
2013-05-19 04:51:00,57.3,52.5,30.07,ESE,118,0.0,0.0,84,0.00,,,0.00,VWS V14.00,2013-05-19 08:51:00,
2013-05-19 04:56:00,57.2,52.7,30.07,ESE,118,0.0,1.0,85,0.00,,,0.00,VWS V14.00,2013-05-19 08:56:00,
2013-05-19 05:01:00,57.1,52.6,30.06,ESE,118,0.0,0.0,85,0.00,,,0.00,VWS V14.00,2013-05-19 09:01:00,
2013-05-19 05:06:00,57.1,52.6,30.06,ESE,118,0.0,0.0,85,0.00,,,0.00,VWS V14.00,2013-05-19 09:06:00,
2013-05-19 05:11:00,56.9,52.4,30.06,ESE,118,0.0,0.0,85,0.00,,,0.00,VWS V14.00,2013-05-19 09:11:00,
2013-05-19 05:16:00,56.9,52.4,30.06,ESE,118,0.0,0.0,85,0.00,,,0.00,VWS V14.00,2013-05-19 09:16:00,
2013-05-19 05:21:00,56.9,52.8,30.06,ESE,118,0.0,0.0,86,0.00,,,0.00,VWS V14.00,2013-05-19 09:21:00,
2013-05-19 05:26:00,56.8,52.7,30.06,ESE,118,0.0,0.0,86,0.00,,,0.00,VWS V14.00,2013-05-19 09:26:00,
2013-05-19 05:31:00,56.7,52.6,30.06,ESE,118,0.0,0.0,86,0.00,,,0.00,VWS V14.00,2013-05-19 09:31:00,
2013-05-19 05:36:00,56.7,52.6,30.07,ESE,118,0.0,0.0,86,0.00,,,0.00,VWS V14.00,2013-05-19 09:36:00,
2013-05-19 05:41:00,56.6,52.5,30.07,ESE,118,0.0,0.0,86,0.00,,,0.00,VWS V14.00,2013-05-19 09:41:00,
2013-05-19 05:46:00,56.6,52.8,30.07,ESE,118,0.0,0.0,87,0.00,,,0.00,VWS V14.00,2013-05-19 09:46:00,
2013-05-19 05:51:00,56.5,52.7,30.07,ESE,118,0.0,0.0,87,0.00,,,0.00,VWS V14.00,2013-05-19 09:51:00,
2013-05-19 05:56:00,56.5,52.7,30.07,SSE,160,0.0,1.0,87,0.00,,,0.00,VWS V14.00,2013-05-19 09:56:00,
2013-05-19 06:01:00,56.4,52.6,30.07,SSE,160,0.0,0.0,87,0.00,,,0.00,VWS V14.00,2013-05-19 10:01:00,
2013-05-19 06:06:00,56.4,52.6,30.07,SSE,160,0.0,0.0,87,0.00,,,0.00,VWS V14.00,2013-05-19 10:06:00,
2013-05-19 06:11:00,56.4,52.9,30.07,SSE,160,0.0,0.0,88,0.00,,,0.00,VWS V14.00,2013-05-19 10:11:00,
2013-05-19 06:16:00,56.4,52.9,30.07,SSE,160,0.0,0.0,88,0.00,,,0.00,VWS V14.00,2013-05-19 10:16:00,
2013-05-19 06:21:00,56.4,52.9,30.08,SSE,160,0.0,0.0,88,0.00,,,0.00,VWS V14.00,2013-05-19 10:21:00,
2013-05-19 06:26:00,56.4,52.9,30.07,SSE,160,0.0,0.0,88,0.00,,,0.00,VWS V14.00,2013-05-19 10:26:00,
2013-05-19 06:31:00,56.4,52.9,30.07,SSE,160,0.0,0.0,88,0.00,,,0.00,VWS V14.00,2013-05-19 10:31:00,
2013-05-19 06:36:00,56.4,52.9,30.07,SSE,160,0.0,0.0,88,0.00,,,0.00,VWS V14.00,2013-05-19 10:36:00,
2013-05-19 06:41:00,56.4,52.9,30.08,SSE,160,0.0,1.0,88,0.00,,,0.00,VWS V14.00,2013-05-19 10:41:00,
2013-05-19 06:46:00,56.4,52.9,30.08,SSE,160,0.0,1.0,88,0.00,,,0.00,VWS V14.00,2013-05-19 10:46:00,
2013-05-19 06:51:00,56.4,53.2,30.08,SSE,160,0.0,1.0,89,0.00,,,0.00,VWS V14.00,2013-05-19 10:51:00,
2013-05-19 06:56:00,56.4,53.2,30.08,SSE,160,0.0,1.0,89,0.00,,,0.00,VWS V14.00,2013-05-19 10:56:00,
2013-05-19 07:01:00,56.5,53.3,30.09,SSE,160,0.0,0.0,89,0.00,,,0.00,VWS V14.00,2013-05-19 11:01:00,
2013-05-19 07:06:00,56.6,53.4,30.08,SSE,160,0.0,0.0,89,0.00,,,0.00,VWS V14.00,2013-05-19 11:06:00,
2013-05-19 07:11:00,56.6,53.4,30.08,SSE,160,0.0,0.0,89,0.00,,,0.00,VWS V14.00,2013-05-19 11:11:00,
2013-05-19 07:16:00,56.7,53.5,30.08,ESE,119,0.0,2.0,89,0.00,,,0.00,VWS V14.00,2013-05-19 11:16:00,
2013-05-19 07:21:00,56.8,53.6,30.08,ESE,119,0.0,2.0,89,0.00,,,0.00,VWS V14.00,2013-05-19 11:21:00,
2013-05-19 07:26:00,56.9,53.7,30.08,ESE,119,0.0,2.0,89,0.00,,,0.00,VWS V14.00,2013-05-19 11:26:00,
2013-05-19 07:31:00,56.9,53.7,30.08,ESE,119,0.0,0.0,89,0.00,,,0.00,VWS V14.00,2013-05-19 11:31:00,
2013-05-19 07:36:00,57.1,53.9,30.09,ESE,119,0.0,0.0,89,0.00,,,0.00,VWS V14.00,2013-05-19 11:36:00,
2013-05-19 07:41:00,57.3,54.1,30.09,SSW,208,0.0,1.0,89,0.00,,,0.00,VWS V14.00,2013-05-19 11:41:00,
2013-05-19 07:46:00,57.5,54.3,30.09,SSW,208,1.0,1.0,89,0.00,,,0.00,VWS V14.00,2013-05-19 11:46:00,
2013-05-19 07:51:00,57.7,54.5,30.09,SSE,155,0.0,1.0,89,0.00,,,0.00,VWS V14.00,2013-05-19 11:51:00,
2013-05-19 07:56:00,57.9,54.4,30.09,SSE,155,0.0,1.0,88,0.00,,,0.00,VWS V14.00,2013-05-19 11:56:00,
2013-05-19 08:01:00,58.1,54.9,30.10,SE,142,0.0,1.0,89,0.00,,,0.00,VWS V14.00,2013-05-19 12:01:00,
2013-05-19 08:06:00,58.3,54.8,30.10,SE,134,0.0,1.0,88,0.00,,,0.00,VWS V14.00,2013-05-19 12:06:00,
2013-05-19 08:11:00,58.5,55.0,30.10,SE,134,0.0,1.0,88,0.00,,,0.00,VWS V14.00,2013-05-19 12:11:00,
2013-05-19 08:16:00,58.7,55.2,30.10,SSW,207,0.0,2.0,88,0.00,,,0.00,VWS V14.00,2013-05-19 12:16:00,
2013-05-19 08:21:00,58.9,55.0,30.10,SE,145,0.0,2.0,87,0.00,,,0.00,VWS V14.00,2013-05-19 12:21:00,
2013-05-19 08:26:00,59.1,55.2,30.10,SE,144,0.0,2.0,87,0.00,,,0.00,VWS V14.00,2013-05-19 12:26:00,
2013-05-19 08:31:00,59.3,55.4,30.10,SSE,149,0.0,1.0,87,0.00,,,0.00,VWS V14.00,2013-05-19 12:31:00,
2013-05-19 08:36:00,59.5,55.3,30.10,ESE,111,0.0,7.0,86,0.00,,,0.00,VWS V14.00,2013-05-19 12:36:00,
2013-05-19 08:41:00,59.6,55.4,30.10,SW,223,0.0,7.0,86,0.00,,,0.00,VWS V14.00,2013-05-19 12:41:00,
2013-05-19 08:46:00,59.8,55.6,30.10,SW,223,0.0,7.0,86,0.00,,,0.00,VWS V14.00,2013-05-19 12:46:00,
2013-05-19 08:51:00,59.9,55.4,30.10,SW,222,0.0,7.0,85,0.00,,,0.00,VWS V14.00,2013-05-19 12:51:00,
2013-05-19 08:56:00,60.1,55.9,30.10,SW,222,0.0,7.0,86,0.00,,,0.00,VWS V14.00,2013-05-19 12:56:00,
2013-05-19 09:01:00,60.3,55.8,30.09,ESE,118,1.0,4.0,85,0.00,,,0.00,VWS V14.00,2013-05-19 13:01:00,
2013-05-19 09:06:00,60.5,56.0,30.10,ESE,115,0.0,4.0,85,0.00,,,0.00,VWS V14.00,2013-05-19 13:06:00,
2013-05-19 09:11:00,60.8,55.9,30.10,SE,126,0.0,4.0,84,0.00,,,0.00,VWS V14.00,2013-05-19 13:11:00,
2013-05-19 09:16:00,61.1,56.2,30.10,SSE,162,0.0,4.0,84,0.00,,,0.00,VWS V14.00,2013-05-19 13:16:00,
2013-05-19 09:21:00,61.4,56.5,30.10,ESE,116,0.0,4.0,84,0.00,,,0.00,VWS V14.00,2013-05-19 13:21:00,
2013-05-19 09:26:00,61.6,56.4,30.09,SSW,203,0.0,4.0,83,0.00,,,0.00,VWS V14.00,2013-05-19 13:26:00,
2013-05-19 09:31:00,61.8,56.6,30.09,South,178,0.0,1.0,83,0.00,,,0.00,VWS V14.00,2013-05-19 13:31:00,
2013-05-19 09:36:00,62.0,56.8,30.09,SE,136,0.0,2.0,83,0.00,,,0.00,VWS V14.00,2013-05-19 13:36:00,
2013-05-19 09:41:00,62.2,56.6,30.09,South,174,0.0,2.0,82,0.00,,,0.00,VWS V14.00,2013-05-19 13:41:00,
2013-05-19 09:46:00,62.5,56.9,30.09,South,174,0.0,2.0,82,0.00,,,0.00,VWS V14.00,2013-05-19 13:46:00,
2013-05-19 09:51:00,62.8,57.2,30.09,SE,134,0.0,2.0,82,0.00,,,0.00,VWS V14.00,2013-05-19 13:51:00,
2013-05-19 09:56:00,63.2,57.6,30.08,SSW,206,0.0,2.0,82,0.00,,,0.00,VWS V14.00,2013-05-19 13:56:00,
2013-05-19 10:01:00,63.8,57.9,30.08,South,184,0.0,1.0,81,0.00,,,0.00,VWS V14.00,2013-05-19 14:01:00,
2013-05-19 10:06:00,64.6,58.0,30.08,SSW,207,0.0,6.0,79,0.00,,,0.00,VWS V14.00,2013-05-19 14:06:00,
2013-05-19 10:11:00,65.2,58.2,30.08,ESE,109,2.0,6.0,78,0.00,,,0.00,VWS V14.00,2013-05-19 14:11:00,
2013-05-19 10:16:00,66.0,58.6,30.08,SE,130,0.0,6.0,77,0.00,,,0.00,VWS V14.00,2013-05-19 14:16:00,
2013-05-19 10:21:00,66.8,58.6,30.07,ESE,123,0.0,6.0,75,0.00,,,0.00,VWS V14.00,2013-05-19 14:21:00,
2013-05-19 10:26:00,67.6,59.0,30.08,SE,124,1.0,6.0,74,0.00,,,0.00,VWS V14.00,2013-05-19 14:26:00,
2013-05-19 10:31:00,68.2,59.2,30.08,SSW,198,0.0,1.0,73,0.00,,,0.00,VWS V14.00,2013-05-19 14:31:00,
2013-05-19 10:36:00,68.3,59.3,30.08,South,190,0.0,1.0,73,0.00,,,0.00,VWS V14.00,2013-05-19 14:36:00,
2013-05-19 10:41:00,68.5,59.5,30.07,South,190,0.0,1.0,73,0.00,,,0.00,VWS V14.00,2013-05-19 14:41:00,
2013-05-19 10:46:00,68.9,60.3,30.07,South,175,0.0,1.0,74,0.00,,,0.00,VWS V14.00,2013-05-19 14:46:00,
2013-05-19 10:51:00,69.1,60.1,30.07,SW,235,0.0,4.0,73,0.00,,,0.00,VWS V14.00,2013-05-19 14:51:00,
2013-05-19 10:56:00,69.4,60.0,30.07,SW,235,1.0,4.0,72,0.00,,,0.00,VWS V14.00,2013-05-19 14:56:00,
2013-05-19 11:01:00,69.9,60.1,30.07,SE,135,0.0,1.0,71,0.00,,,0.00,VWS V14.00,2013-05-19 15:01:00,
2013-05-19 11:06:00,70.4,60.2,30.06,SSW,207,0.0,3.0,70,0.00,,,0.00,VWS V14.00,2013-05-19 15:06:00,
2013-05-19 11:11:00,70.7,60.8,30.06,SSW,211,0.0,3.0,71,0.00,,,0.00,VWS V14.00,2013-05-19 15:11:00,
2013-05-19 11:16:00,70.4,60.6,30.05,SSW,211,0.0,3.0,71,0.00,,,0.00,VWS V14.00,2013-05-19 15:16:00,
2013-05-19 11:21:00,70.0,60.6,30.06,SW,230,0.0,3.0,72,0.01,,,0.01,VWS V14.00,2013-05-19 15:21:00,
2013-05-19 11:26:00,70.0,61.3,30.06,SW,230,0.0,3.0,74,0.01,,,0.01,VWS V14.00,2013-05-19 15:26:00,
2013-05-19 11:32:00,70.1,61.4,30.05,SSE,157,0.0,0.0,74,0.01,,,0.01,VWS V14.00,2013-05-19 15:32:00,
2013-05-19 11:37:00,70.2,61.5,30.05,SSW,205,0.0,3.0,74,0.01,,,0.01,VWS V14.00,2013-05-19 15:37:00,
2013-05-19 11:42:00,70.6,61.9,30.05,SW,215,0.0,3.0,74,0.01,,,0.01,VWS V14.00,2013-05-19 15:42:00,
2013-05-19 11:47:00,70.8,61.3,30.06,SW,215,0.0,3.0,72,0.01,,,0.01,VWS V14.00,2013-05-19 15:47:00,
2013-05-19 11:52:00,70.8,60.5,30.05,SW,215,0.0,3.0,70,0.01,,,0.01,VWS V14.00,2013-05-19 15:52:00,
2013-05-19 11:57:00,71.1,60.8,30.05,SW,234,0.0,4.0,70,0.01,,,0.01,VWS V14.00,2013-05-19 15:57:00,
2013-05-19 12:02:00,71.4,61.1,30.05,SSW,202,0.0,3.0,70,0.01,,,0.01,VWS V14.00,2013-05-19 16:02:00,
2013-05-19 12:07:00,71.5,60.8,30.05,South,175,0.0,3.0,69,0.01,,,0.01,VWS V14.00,2013-05-19 16:07:00,
2013-05-19 12:12:00,71.5,61.6,30.05,SW,221,3.0,3.0,71,0.01,,,0.01,VWS V14.00,2013-05-19 16:12:00,
2013-05-19 12:17:00,71.7,61.0,30.04,SE,127,4.0,4.0,69,0.01,,,0.01,VWS V14.00,2013-05-19 16:17:00,
2013-05-19 12:22:00,72.2,61.9,30.04,SSW,205,0.0,5.0,70,0.01,,,0.01,VWS V14.00,2013-05-19 16:22:00,
2013-05-19 12:27:00,72.6,61.4,30.04,SW,216,0.0,5.0,68,0.01,,,0.01,VWS V14.00,2013-05-19 16:27:00,
2013-05-19 12:32:00,72.8,61.2,30.04,SW,225,0.0,1.0,67,0.00,,,0.01,VWS V14.00,2013-05-19 16:32:00,
2013-05-19 12:37:00,73.0,61.8,30.04,SW,225,0.0,2.0,68,0.00,,,0.01,VWS V14.00,2013-05-19 16:37:00,
2013-05-19 12:42:00,73.4,61.8,30.03,SW,225,0.0,2.0,67,0.00,,,0.01,VWS V14.00,2013-05-19 16:42:00,
2013-05-19 12:47:00,73.7,62.5,30.03,SW,225,0.0,2.0,68,0.00,,,0.01,VWS V14.00,2013-05-19 16:47:00,
2013-05-19 12:52:00,74.3,61.8,30.03,SW,220,1.0,4.0,65,0.00,,,0.01,VWS V14.00,2013-05-19 16:52:00,
2013-05-19 12:57:00,74.5,61.5,30.03,NW,305,0.0,4.0,64,0.00,,,0.01,VWS V14.00,2013-05-19 16:57:00,
2013-05-19 13:02:00,74.8,61.8,30.03,SW,217,0.0,1.0,64,0.00,,,0.01,VWS V14.00,2013-05-19 17:02:00,
2013-05-19 13:07:00,75.3,61.8,30.02,SW,217,0.0,1.0,63,0.00,,,0.01,VWS V14.00,2013-05-19 17:07:00,
2013-05-19 13:12:00,76.0,62.5,30.02,SE,134,0.0,4.0,63,0.00,,,0.01,VWS V14.00,2013-05-19 17:12:00,
2013-05-19 13:17:00,76.3,62.3,30.02,SSW,213,0.0,4.0,62,0.00,,,0.01,VWS V14.00,2013-05-19 17:17:00,
2013-05-19 13:22:00,76.1,61.7,30.02,SE,137,0.0,5.0,61,0.00,,,0.01,VWS V14.00,2013-05-19 17:22:00,
2013-05-19 13:27:00,76.0,61.6,30.01,SE,137,0.0,5.0,61,0.00,,,0.01,VWS V14.00,2013-05-19 17:27:00,
2013-05-19 13:32:00,76.2,61.8,30.01,SSW,208,0.0,3.0,61,0.00,,,0.01,VWS V14.00,2013-05-19 17:32:00,
2013-05-19 13:37:00,76.6,61.7,30.01,ESE,121,2.0,3.0,60,0.00,,,0.01,VWS V14.00,2013-05-19 17:37:00,
2013-05-19 13:42:00,76.8,60.9,30.01,ESE,121,0.0,3.0,58,0.00,,,0.01,VWS V14.00,2013-05-19 17:42:00,
2013-05-19 13:47:00,76.8,60.9,30.00,South,169,0.0,3.0,58,0.00,,,0.01,VWS V14.00,2013-05-19 17:47:00,
2013-05-19 13:52:00,76.6,60.2,30.00,West,281,0.0,3.0,57,0.00,,,0.01,VWS V14.00,2013-05-19 17:52:00,
2013-05-19 13:57:00,76.5,61.6,30.00,West,272,0.0,3.0,60,0.00,,,0.01,VWS V14.00,2013-05-19 17:57:00,
2013-05-19 14:02:00,76.4,61.0,30.00,West,269,0.0,0.0,59,0.00,,,0.01,VWS V14.00,2013-05-19 18:02:00,
2013-05-19 14:07:00,76.3,61.4,29.99,West,269,0.0,1.0,60,0.00,,,0.01,VWS V14.00,2013-05-19 18:07:00,
2013-05-19 14:12:00,76.3,61.4,29.99,SW,224,2.0,2.0,60,0.00,,,0.01,VWS V14.00,2013-05-19 18:12:00,
2013-05-19 14:17:00,76.4,62.0,29.99,SW,222,0.0,3.0,61,0.00,,,0.01,VWS V14.00,2013-05-19 18:17:00,
2013-05-19 14:22:00,76.3,60.9,29.99,SW,223,0.0,3.0,59,0.00,,,0.01,VWS V14.00,2013-05-19 18:22:00,
2013-05-19 14:27:00,76.1,60.8,29.99,SSE,156,1.0,4.0,59,0.00,,,0.01,VWS V14.00,2013-05-19 18:27:00,
2013-05-19 14:32:00,76.1,60.8,29.99,SSE,156,0.0,1.0,59,0.00,,,0.01,VWS V14.00,2013-05-19 18:32:00,
2013-05-19 14:37:00,76.0,60.7,29.99,SW,221,0.0,2.0,59,0.00,,,0.01,VWS V14.00,2013-05-19 18:37:00,
2013-05-19 14:42:00,75.7,60.4,29.99,SW,221,0.0,2.0,59,0.00,,,0.01,VWS V14.00,2013-05-19 18:42:00,
2013-05-19 14:47:00,75.7,61.8,29.99,ESE,109,0.0,4.0,62,0.00,,,0.01,VWS V14.00,2013-05-19 18:47:00,
2013-05-19 14:52:00,75.9,61.0,29.98,ESE,113,0.0,4.0,60,0.00,,,0.01,VWS V14.00,2013-05-19 18:52:00,
2013-05-19 14:57:00,76.1,61.2,29.98,SE,145,0.0,4.0,60,0.00,,,0.01,VWS V14.00,2013-05-19 18:57:00,
2013-05-19 15:02:00,76.4,61.0,29.98,SSE,156,1.0,2.0,59,0.00,,,0.01,VWS V14.00,2013-05-19 19:02:00,
2013-05-19 15:07:00,76.5,61.6,29.98,SSW,202,0.0,2.0,60,0.00,,,0.01,VWS V14.00,2013-05-19 19:07:00,
2013-05-19 15:12:00,76.4,61.5,29.98,SSW,202,0.0,2.0,60,0.00,,,0.01,VWS V14.00,2013-05-19 19:12:00,
2013-05-19 15:17:00,76.2,60.4,29.98,SW,217,0.0,5.0,58,0.00,,,0.01,VWS V14.00,2013-05-19 19:17:00,
2013-05-19 15:22:00,76.1,60.8,29.97,SW,217,0.0,5.0,59,0.00,,,0.01,VWS V14.00,2013-05-19 19:22:00,
2013-05-19 15:27:00,76.2,61.3,29.97,WSW,242,0.0,5.0,60,0.00,,,0.01,VWS V14.00,2013-05-19 19:27:00,
2013-05-19 15:32:00,76.4,61.0,29.97,South,188,0.0,0.0,59,0.00,,,0.01,VWS V14.00,2013-05-19 19:32:00,
2013-05-19 15:37:00,76.5,61.6,29.97,South,188,0.0,1.0,60,0.00,,,0.01,VWS V14.00,2013-05-19 19:37:00,
2013-05-19 15:42:00,76.4,61.0,29.97,SSE,165,0.0,6.0,59,0.00,,,0.01,VWS V14.00,2013-05-19 19:42:00,
2013-05-19 15:47:00,76.4,61.0,29.97,South,191,0.0,6.0,59,0.00,,,0.01,VWS V14.00,2013-05-19 19:47:00,
2013-05-19 15:52:00,76.4,62.0,29.97,SW,230,1.0,6.0,61,0.00,,,0.01,VWS V14.00,2013-05-19 19:52:00,
2013-05-19 15:57:00,76.5,61.1,29.97,SW,230,0.0,6.0,59,0.00,,,0.01,VWS V14.00,2013-05-19 19:57:00,
2013-05-19 16:02:00,76.6,61.7,29.97,SW,230,0.0,0.0,60,0.00,,,0.01,VWS V14.00,2013-05-19 20:02:00,
2013-05-19 16:07:00,76.7,61.8,29.97,SSW,212,1.0,2.0,60,0.00,,,0.01,VWS V14.00,2013-05-19 20:07:00,
2013-05-19 16:12:00,76.6,60.7,29.96,SSW,211,0.0,3.0,58,0.00,,,0.01,VWS V14.00,2013-05-19 20:12:00,
2013-05-19 16:17:00,76.3,61.4,29.97,SSW,211,0.0,3.0,60,0.00,,,0.01,VWS V14.00,2013-05-19 20:17:00,
2013-05-19 16:22:00,76.0,61.1,29.97,SSW,211,0.0,3.0,60,0.00,,,0.01,VWS V14.00,2013-05-19 20:22:00,
2013-05-19 16:27:00,75.9,61.5,29.97,SSW,211,0.0,3.0,61,0.00,,,0.01,VWS V14.00,2013-05-19 20:27:00,
2013-05-19 16:32:00,75.8,61.4,29.97,SSW,211,0.0,0.0,61,0.00,,,0.01,VWS V14.00,2013-05-19 20:32:00,
2013-05-19 16:37:00,75.7,61.3,29.97,SSE,161,0.0,1.0,61,0.00,,,0.01,VWS V14.00,2013-05-19 20:37:00,
2013-05-19 16:42:00,75.6,61.7,29.97,SSE,161,0.0,1.0,62,0.00,,,0.01,VWS V14.00,2013-05-19 20:42:00,
2013-05-19 16:47:00,75.6,61.2,29.97,SSE,161,0.0,1.0,61,0.00,,,0.01,VWS V14.00,2013-05-19 20:47:00,
2013-05-19 16:52:00,75.7,61.8,29.96,SSE,161,0.0,1.0,62,0.00,,,0.01,VWS V14.00,2013-05-19 20:52:00,
2013-05-19 16:57:00,75.8,61.4,29.96,SSE,161,0.0,1.0,61,0.00,,,0.01,VWS V14.00,2013-05-19 20:57:00,
2013-05-19 17:02:00,75.9,61.5,29.97,SSE,161,0.0,0.0,61,0.00,,,0.01,VWS V14.00,2013-05-19 21:02:00,
2013-05-19 17:07:00,76.0,61.6,29.96,SSE,161,0.0,0.0,61,0.00,,,0.01,VWS V14.00,2013-05-19 21:07:00,
2013-05-19 17:12:00,76.1,61.2,29.96,SSW,202,0.0,2.0,60,0.00,,,0.01,VWS V14.00,2013-05-19 21:12:00,
2013-05-19 17:17:00,76.0,61.6,29.96,SSW,202,0.0,2.0,61,0.00,,,0.01,VWS V14.00,2013-05-19 21:17:00,
2013-05-19 17:23:00,76.0,62.0,29.96,SSW,208,0.0,3.0,62,0.00,,,0.01,VWS V14.00,2013-05-19 21:23:00,
2013-05-19 17:28:00,76.0,62.0,29.96,SSE,154,0.0,3.0,62,0.00,,,0.01,VWS V14.00,2013-05-19 21:28:00,
2013-05-19 17:33:00,75.9,62.0,29.96,SE,144,0.0,1.0,62,0.00,,,0.01,VWS V14.00,2013-05-19 21:33:00,
2013-05-19 17:38:00,75.7,61.8,29.96,SE,142,1.0,1.0,62,0.00,,,0.01,VWS V14.00,2013-05-19 21:38:00,
2013-05-19 17:43:00,75.5,61.6,29.96,SE,142,0.0,1.0,62,0.00,,,0.01,VWS V14.00,2013-05-19 21:43:00,
2013-05-19 17:48:00,75.2,61.3,29.96,SE,137,0.0,4.0,62,0.00,,,0.01,VWS V14.00,2013-05-19 21:48:00,
2013-05-19 17:53:00,75.1,62.1,29.96,SE,137,0.0,4.0,64,0.00,,,0.01,VWS V14.00,2013-05-19 21:53:00,
2013-05-19 17:58:00,74.9,61.5,29.97,SSW,207,1.0,4.0,63,0.00,,,0.01,VWS V14.00,2013-05-19 21:58:00,
2013-05-19 18:03:00,74.7,61.3,29.96,SSW,206,0.0,2.0,63,0.00,,,0.01,VWS V14.00,2013-05-19 22:03:00,
2013-05-19 18:08:00,74.6,61.6,29.96,SSW,194,0.0,3.0,64,0.00,,,0.01,VWS V14.00,2013-05-19 22:08:00,
2013-05-19 18:13:00,74.4,61.4,29.96,SSW,193,0.0,3.0,64,0.00,,,0.01,VWS V14.00,2013-05-19 22:13:00,
2013-05-19 18:18:00,74.1,61.6,29.96,SSW,193,0.0,3.0,65,0.00,,,0.01,VWS V14.00,2013-05-19 22:18:00,
2013-05-19 18:23:00,73.8,61.3,29.96,SSW,193,0.0,3.0,65,0.00,,,0.01,VWS V14.00,2013-05-19 22:23:00,
2013-05-19 18:28:00,73.5,61.0,29.96,SSW,193,0.0,3.0,65,0.00,,,0.01,VWS V14.00,2013-05-19 22:28:00,
2013-05-19 18:33:00,73.3,61.3,29.96,SSW,193,0.0,0.0,66,0.00,,,0.01,VWS V14.00,2013-05-19 22:33:00,
2013-05-19 18:38:00,73.0,61.4,29.96,SSW,193,0.0,0.0,67,0.00,,,0.01,VWS V14.00,2013-05-19 22:38:00,
2013-05-19 18:43:00,72.8,61.2,29.96,SSW,193,0.0,0.0,67,0.00,,,0.01,VWS V14.00,2013-05-19 22:43:00,
2013-05-19 18:48:00,72.7,61.1,29.96,SSW,193,0.0,0.0,67,0.00,,,0.01,VWS V14.00,2013-05-19 22:48:00,
2013-05-19 18:53:00,72.6,61.4,29.96,SSW,193,0.0,0.0,68,0.00,,,0.01,VWS V14.00,2013-05-19 22:53:00,
2013-05-19 18:58:00,72.5,61.3,29.96,SSW,193,0.0,1.0,68,0.00,,,0.01,VWS V14.00,2013-05-19 22:58:00,
2013-05-19 19:03:00,72.6,61.4,29.96,SSW,193,0.0,1.0,68,0.00,,,0.01,VWS V14.00,2013-05-19 23:03:00,
2013-05-19 19:08:00,72.6,61.4,29.96,SSW,193,0.0,1.0,68,0.00,,,0.01,VWS V14.00,2013-05-19 23:08:00,
2013-05-19 19:13:00,72.4,61.7,29.96,SSW,193,0.0,1.0,69,0.00,,,0.01,VWS V14.00,2013-05-19 23:13:00,
2013-05-19 19:18:00,72.3,61.6,29.96,South,174,0.0,1.0,69,0.00,,,0.01,VWS V14.00,2013-05-19 23:18:00,
2013-05-19 19:23:00,72.2,61.5,29.96,South,174,0.0,1.0,69,0.00,,,0.01,VWS V14.00,2013-05-19 23:23:00,
2013-05-19 19:28:00,72.1,61.4,29.96,South,174,0.0,1.0,69,0.00,,,0.01,VWS V14.00,2013-05-19 23:28:00,
2013-05-19 19:33:00,71.9,61.2,29.96,South,174,0.0,0.0,69,0.00,,,0.01,VWS V14.00,2013-05-19 23:33:00,
2013-05-19 19:38:00,71.7,61.0,29.96,SSE,164,0.0,2.0,69,0.00,,,0.01,VWS V14.00,2013-05-19 23:38:00,
2013-05-19 19:43:00,71.6,60.9,29.96,SSE,164,0.0,2.0,69,0.00,,,0.01,VWS V14.00,2013-05-19 23:43:00,
2013-05-19 19:48:00,71.4,61.1,29.96,SSE,164,0.0,2.0,70,0.00,,,0.01,VWS V14.00,2013-05-19 23:48:00,
2013-05-19 19:53:00,71.2,60.9,29.96,SSE,164,0.0,2.0,70,0.00,,,0.01,VWS V14.00,2013-05-19 23:53:00,
2013-05-19 19:58:00,71.0,61.1,29.96,SSE,164,0.0,2.0,71,0.00,,,0.01,VWS V14.00,2013-05-19 23:58:00,
2013-05-19 20:03:00,70.8,60.9,29.96,SSE,164,0.0,0.0,71,0.00,,,0.01,VWS V14.00,2013-05-20 00:03:00,
2013-05-19 20:08:00,70.6,61.1,29.96,SSE,164,0.0,0.0,72,0.00,,,0.01,VWS V14.00,2013-05-20 00:08:00,
2013-05-19 20:13:00,70.3,60.9,29.97,SSE,164,0.0,0.0,72,0.00,,,0.01,VWS V14.00,2013-05-20 00:13:00,
2013-05-19 20:18:00,70.0,60.6,29.97,SSE,164,0.0,0.0,72,0.00,,,0.01,VWS V14.00,2013-05-20 00:18:00,
2013-05-19 20:23:00,69.7,60.7,29.96,SSE,164,0.0,0.0,73,0.00,,,0.01,VWS V14.00,2013-05-20 00:23:00,
2013-05-19 20:28:00,69.4,60.4,29.97,SSE,164,0.0,0.0,73,0.00,,,0.01,VWS V14.00,2013-05-20 00:28:00,
2013-05-19 20:33:00,69.1,60.1,29.97,SSE,164,0.0,1.0,73,0.00,,,0.01,VWS V14.00,2013-05-20 00:33:00,
2013-05-19 20:38:00,68.8,60.2,29.97,SSE,162,0.0,1.0,74,0.00,,,0.01,VWS V14.00,2013-05-20 00:38:00,
2013-05-19 20:43:00,68.6,60.4,29.97,SSE,162,0.0,1.0,75,0.00,,,0.01,VWS V14.00,2013-05-20 00:43:00,
2013-05-19 20:48:00,68.3,60.1,29.97,SSE,162,0.0,1.0,75,0.00,,,0.01,VWS V14.00,2013-05-20 00:48:00,
2013-05-19 20:53:00,68.1,60.3,29.97,SSE,159,0.0,1.0,76,0.00,,,0.01,VWS V14.00,2013-05-20 00:53:00,
2013-05-19 20:58:00,67.8,60.0,29.97,SSE,159,0.0,1.0,76,0.00,,,0.01,VWS V14.00,2013-05-20 00:58:00,
2013-05-19 21:03:00,67.6,59.8,29.97,SSE,159,0.0,0.0,76,0.00,,,0.01,VWS V14.00,2013-05-20 01:03:00,
2013-05-19 21:08:00,67.4,59.6,29.97,SSE,159,0.0,1.0,76,0.00,,,0.01,VWS V14.00,2013-05-20 01:08:00,
2013-05-19 21:13:00,67.2,59.4,29.97,SSE,159,0.0,1.0,76,0.00,,,0.01,VWS V14.00,2013-05-20 01:13:00,
2013-05-19 21:18:00,67.0,59.6,29.98,SSE,159,0.0,1.0,77,0.00,,,0.01,VWS V14.00,2013-05-20 01:18:00,
2013-05-19 21:23:00,66.8,59.4,29.98,ESE,121,0.0,2.0,77,0.00,,,0.01,VWS V14.00,2013-05-20 01:23:00,
2013-05-19 21:28:00,66.7,59.3,29.98,SE,125,0.0,2.0,77,0.00,,,0.01,VWS V14.00,2013-05-20 01:28:00,
2013-05-19 21:33:00,66.5,59.4,29.98,SE,125,0.0,0.0,78,0.00,,,0.01,VWS V14.00,2013-05-20 01:33:00,
2013-05-19 21:38:00,66.3,59.2,29.98,SE,125,0.0,0.0,78,0.00,,,0.01,VWS V14.00,2013-05-20 01:38:00,
2013-05-19 21:43:00,66.1,59.0,29.99,SE,140,0.0,2.0,78,0.00,,,0.01,VWS V14.00,2013-05-20 01:43:00,
2013-05-19 21:48:00,65.9,58.9,29.98,ESE,122,0.0,2.0,78,0.00,,,0.01,VWS V14.00,2013-05-20 01:48:00,
2013-05-19 21:53:00,65.7,59.0,29.98,SE,126,0.0,4.0,79,0.00,,,0.01,VWS V14.00,2013-05-20 01:53:00,
2013-05-19 21:58:00,65.5,58.8,29.99,SE,126,0.0,4.0,79,0.00,,,0.01,VWS V14.00,2013-05-20 01:58:00,
2013-05-19 22:03:00,65.3,58.6,29.99,SE,126,0.0,0.0,79,0.00,,,0.01,VWS V14.00,2013-05-20 02:03:00,
2013-05-19 22:08:00,65.2,58.5,29.99,SE,125,0.0,2.0,79,0.00,,,0.01,VWS V14.00,2013-05-20 02:08:00,
2013-05-19 22:13:00,65.0,58.7,30.00,SE,124,0.0,2.0,80,0.00,,,0.01,VWS V14.00,2013-05-20 02:13:00,
2013-05-19 22:18:00,64.9,58.6,29.99,SE,128,0.0,2.0,80,0.00,,,0.01,VWS V14.00,2013-05-20 02:18:00,
2013-05-19 22:23:00,64.7,58.4,29.99,ESE,105,0.0,2.0,80,0.00,,,0.01,VWS V14.00,2013-05-20 02:23:00,
2013-05-19 22:28:00,64.5,58.5,30.00,ESE,105,0.0,2.0,81,0.00,,,0.01,VWS V14.00,2013-05-20 02:28:00,
2013-05-19 22:33:00,64.4,58.5,30.00,ESE,114,0.0,0.0,81,0.00,,,0.01,VWS V14.00,2013-05-20 02:33:00,
2013-05-19 22:38:00,64.3,58.3,30.00,ESE,114,0.0,0.0,81,0.00,,,0.01,VWS V14.00,2013-05-20 02:38:00,
2013-05-19 22:43:00,64.1,58.2,30.00,ESE,114,0.0,1.0,81,0.00,,,0.01,VWS V14.00,2013-05-20 02:43:00,
2013-05-19 22:48:00,64.0,58.4,30.00,ESE,114,0.0,1.0,82,0.00,,,0.01,VWS V14.00,2013-05-20 02:48:00,
2013-05-19 22:53:00,63.8,57.9,30.00,ESE,121,0.0,2.0,81,0.00,,,0.01,VWS V14.00,2013-05-20 02:53:00,
2013-05-19 22:58:00,63.7,58.1,30.00,ESE,121,0.0,2.0,82,0.00,,,0.01,VWS V14.00,2013-05-20 02:58:00,
2013-05-19 23:03:00,63.5,57.9,30.00,ESE,110,0.0,1.0,82,0.00,,,0.01,VWS V14.00,2013-05-20 03:03:00,
2013-05-19 23:08:00,63.3,57.7,30.00,ESE,110,0.0,1.0,82,0.00,,,0.01,VWS V14.00,2013-05-20 03:08:00,
2013-05-19 23:13:00,63.2,57.6,30.00,ESE,110,0.0,1.0,82,0.00,,,0.01,VWS V14.00,2013-05-20 03:13:00,
2013-05-19 23:18:00,63.0,57.8,30.00,ESE,108,0.0,2.0,83,0.00,,,0.01,VWS V14.00,2013-05-20 03:18:00,
2013-05-19 23:23:00,62.9,57.7,30.00,ESE,108,0.0,2.0,83,0.00,,,0.01,VWS V14.00,2013-05-20 03:23:00,
2013-05-19 23:28:00,62.7,57.5,29.99,ESE,108,0.0,2.0,83,0.00,,,0.01,VWS V14.00,2013-05-20 03:28:00,
2013-05-19 23:33:00,62.6,57.4,29.99,ESE,108,0.0,1.0,83,0.00,,,0.01,VWS V14.00,2013-05-20 03:33:00,
2013-05-19 23:38:00,62.5,57.6,29.99,East,88,0.0,2.0,84,0.00,,,0.01,VWS V14.00,2013-05-20 03:38:00,
2013-05-19 23:43:00,62.4,57.5,29.99,East,88,0.0,2.0,84,0.00,,,0.01,VWS V14.00,2013-05-20 03:43:00,
2013-05-19 23:48:00,62.3,57.4,29.99,East,88,0.0,2.0,84,0.00,,,0.01,VWS V14.00,2013-05-20 03:48:00,
2013-05-19 23:53:00,62.3,57.4,29.99,East,88,0.0,2.0,84,0.00,,,0.01,VWS V14.00,2013-05-20 03:53:00,
2013-05-19 23:58:00,62.2,57.6,29.99,South,178,0.0,5.0,85,0.00,,,0.01,VWS V14.00,2013-05-20 03:58:00,